Starlink 31300

operational
NORAD ID: 58878 Int'l Des: 2024-020 Owner: SPXS Country: US Constellation: starlink
LEOCIRCULAR

Starlink 31300について

説明を読み込み中...

リアルタイム位置

3D地球を読み込み中...

次回通過

高度履歴

Altitude vs Time

uPlot chart will show altitude changes over time

軌道要素

1 58878U 24020C 25306.38875154 .00003082 00000-0 11617-3 0 9993
2 58878 53.1610 193.5191 0001466 85.3139 274.8029 15.30192518 98586
Epoch: Nov 2, 2025 • Age: 25 hours

現在のステータス

高度 479.5 km
速度 7.63 km/s
衛星直下点 47.50°N, 39.52°E
打ち上げ日 Jan 29, 2024
運用期間 1.7 years
タイプ internet

技術仕様

分類 Payload
質量 730.00 kg
乾燥質量 700.00 kg
総質量 730.00 kg
長さ 0.30 m
直径 4.10 m
スパン 29.00 m
形状 Box + pan
製造者 SPXS
バスタイプ Starlink V2M
フェーズステータス In Orbit
所有者/国 SPXS/US

大規模コンステレーション

Loading constellations...